| time (UTC) | temp C | wind direction | speed KPH | gust KPH | rain 1hr cm | rain 24hr cm | rain mn cm | humidity % | barometer mb |
| 20260503071535 | 15 | 184 | 1.6 | 9.7 | 0.00 | 0.00 | 0.00 | 81 | 1015.2 |
| 20260503054526 | 14 | 176 | 3.2 | 6.4 | 0.00 | 0.00 | 0.00 | 85 | 1014.8 |
| 20260503053016 | 14 | 163 | 1.6 | 6.4 | 0.00 | 0.00 | 0.00 | 84 | 1014.7 |
| 20260503051526 | 14 | 172 | 1.6 | 4.8 | 0.00 | 0.00 | 0.00 | 85 | 1014.6 |
| 20260503050028 | 14 | 172 | 1.6 | 6.4 | 0.00 | 0.00 | 0.00 | 85 | 1014.7 |
| 20260503044529 | 14 | 186 | 3.2 | 4.8 | 0.00 | 0.00 | 0.00 | 85 | 1014.7 |
| 20260503043019 | 15 | 201 | 3.2 | 9.7 | 0.00 | 0.00 | 0.00 | 85 | 1014.7 |
| 20260503041524 | 14 | 173 | 1.6 | 6.4 | 0.00 | 0.00 | 0.00 | 85 | 1014.9 |
| 20260503040024 | 14 | 183 | 3.2 | 4.8 | 0.00 | 0.00 | 0.00 | 85 | 1014.8 |
| 20260503034528 | 15 | 183 | 3.2 | 8.0 | 0.00 | 0.00 | 0.00 | 85 | 1014.9 |
| 20260503033023 | 14 | 166 | 1.6 | 8.0 | 0.00 | 0.00 | 0.00 | 85 | 1014.9 |
| 20260503031523 | 14 | 176 | 1.6 | 8.0 | 0.00 | 0.00 | 0.00 | 85 | 1015.0 |
| 20260503030025 | 14 | 176 | 4.8 | 6.4 | 0.00 | 0.00 | 0.00 | 85 | 1015.1 |
| 20260503024526 | 15 | 186 | 3.2 | 4.8 | 0.00 | 0.00 | 0.00 | 85 | 1015.1 |
| 20260503023025 | 15 | 180 | 3.2 | 8.0 | 0.00 | 0.00 | 0.00 | 85 | 1015.1 |
| 20260503021518 | 15 | 181 | 1.6 | 8.0 | 0.00 | 0.00 | 0.00 | 85 | 1015.2 |
| 20260503020024 | 15 | 179 | 4.8 | 6.4 | 0.00 | 0.00 | 0.00 | 86 | 1015.3 |
| 20260503014524 | 15 | 184 | 3.2 | 8.0 | 0.00 | 0.00 | 0.00 | 86 | 1015.3 |
| 20260503013026 | 15 | 186 | 6.4 | 11.3 | 0.00 | 0.00 | 0.00 | 87 | 1015.5 |
| 20260503011529 | 15 | 186 | 4.8 | 6.4 | 0.00 | 0.00 | 0.00 | 87 | 1015.7 |
| 20260503010025 | 15 | 175 | 3.2 | 8.0 | 0.00 | 0.00 | 0.00 | 87 | 1015.7 |
| 20260503004507 | 15 | 183 | 3.2 | 6.4 | 0.00 | 0.00 | 0.00 | 88 | 1015.8 |
| 20260503003027 | 15 | 187 | 3.2 | 9.7 | 0.00 | 0.00 | 0.00 | 88 | 1016.1 |
| 20260503001527 | 15 | 174 | 3.2 | 8.0 | 0.00 | 0.00 | 0.00 | 88 | 1016.1 |
| 20260503000017 | 15 | 178 | 4.8 | 9.7 | 0.00 | 0.00 | 0.00 | 88 | 1016.3 |
| 20260502234533 | 15 | 194 | 4.8 | 9.7 | 0.00 | 0.00 | 0.00 | 89 | 1016.2 |
| 20260502233006 | 15 | 184 | 3.2 | 11.3 | 0.00 | 0.00 | 0.00 | 89 | 1016.4 |
| 20260502231511 | 15 | 184 | 4.8 | 11.3 | 0.00 | 0.00 | 0.00 | 89 | 1016.5 |
| 20260502230022 | 15 | 186 | 4.8 | 8.0 | 0.00 | 0.00 | 0.00 | 89 | 1016.5 |
| 20260502224521 | 15 | 181 | 3.2 | 11.3 | 0.00 | 0.00 | 0.00 | 89 | 1016.5 |
| 20260502223014 | 16 | 180 | 8.0 | 14.5 | 0.00 | 0.00 | 0.00 | 89 | 1016.4 |
| 20260502221508 | 16 | 167 | 6.4 | 16.1 | 0.00 | 0.00 | 0.00 | 89 | 1016.4 |
| 20260502220016 | 16 | 216 | 8.0 | 16.1 | 0.00 | 0.00 | 0.00 | 89 | 1016.5 |
| 20260502214519 | 16 | 176 | 8.0 | 14.5 | 0.00 | 0.00 | 0.00 | 89 | 1016.4 |
| 20260502213026 | 16 | 186 | 8.0 | 14.5 | 0.00 | 0.00 | 0.00 | 88 | 1016.3 |
| 20260502211516 | 16 | 172 | 6.4 | 16.1 | 0.00 | 0.00 | 0.00 | 88 | 1016.4 |
| 20260502210014 | 16 | 175 | 3.2 | 14.5 | 0.00 | 0.00 | 0.00 | 88 | 1016.3 |
| 20260502204518 | 16 | 176 | 6.4 | 14.5 | 0.00 | 0.00 | 0.00 | 89 | 1016.1 |
| 20260502203026 | 16 | 153 | 9.7 | 16.1 | 0.00 | 0.00 | 0.00 | 89 | 1016.0 |
| 20260502201527 | 16 | 157 | 9.7 | 14.5 | 0.00 | 0.00 | 0.00 | 89 | 1015.9 |
| 20260502200012 | 16 | 161 | 6.4 | 12.9 | 0.00 | 0.00 | 0.00 | 89 | 1015.7 |
| 20260502194515 | 16 | 141 | 6.4 | 12.9 | 0.00 | 0.00 | 0.00 | 89 | 1015.6 |
| 20260502193020 | 16 | 138 | 8.0 | 12.9 | 0.00 | 0.00 | 0.00 | 88 | 1015.6 |
| 20260502191523 | 16 | 122 | 6.4 | 12.9 | 0.00 | 0.00 | 0.00 | 87 | 1015.6 |
| 20260502190027 | 16 | 161 | 8.0 | 12.9 | 0.00 | 0.00 | 0.00 | 86 | 1015.6 |
| 20260502184515 | 16 | 121 | 6.4 | 14.5 | 0.00 | 0.00 | 0.00 | 85 | 1015.6 |
| 20260502183020 | 17 | 146 | 4.8 | 14.5 | 0.00 | 0.00 | 0.00 | 85 | 1015.7 |
| 20260502181529 | 17 | 147 | 4.8 | 14.5 | 0.00 | 0.00 | 0.00 | 82 | 1015.8 |
| 20260502163012 | 18 | 160 | 12.9 | 17.7 | 0.00 | 0.00 | 0.00 | 79 | 1016.1 |
| 20260502161511 | 18 | 146 | 11.3 | 17.7 | 0.00 | 0.00 | 0.00 | 78 | 1016.1 |
| 20260502151512 | 19 | 159 | 9.7 | 19.3 | 0.00 | 0.00 | 0.00 | 75 | 1016.4 |
| 20260502123018 | 19 | 92 | 14.5 | 20.9 | 0.00 | 0.00 | 0.00 | 67 | 1017.5 |
| 20260502121511 | 19 | 117 | 9.7 | 22.5 | 0.00 | 0.00 | 0.00 | 69 | 1017.7 |
| 20260502114519 | 19 | 178 | 11.3 | 19.3 | 0.00 | 0.00 | 0.00 | 58 | 1017.8 |
| 20260502113016 | 18 | 121 | 12.9 | 17.7 | 0.00 | 0.00 | 0.00 | 61 | 1017.8 |
| 20260502111520 | 18 | 128 | 11.3 | 17.7 | 0.00 | 0.00 | 0.00 | 65 | 1017.9 |
| 20260502110014 | 19 | 143 | 6.4 | 19.3 | 0.00 | 0.00 | 0.00 | 65 | 1018.0 |
| 20260502104518 | 19 | 138 | 12.9 | 17.7 | 0.00 | 0.00 | 0.00 | 62 | 1018.0 |
| 20260502103019 | 19 | 132 | 11.3 | 17.7 | 0.00 | 0.00 | 0.00 | 58 | 1018.0 |
| 20260502101518 | 18 | 112 | 12.9 | 16.1 | 0.00 | 0.00 | 0.00 | 55 | 1017.9 |
| 20260502091521 | 18 | 114 | 8.0 | 14.5 | 0.00 | 0.00 | 0.00 | 66 | 1017.7 |